Location: Aiyede
(8.4833°N, 4.4500°E)
Time: 18:05:35
(UTC+00:00)

N. Korean satellite - Pass Details

Date: 03 December 2020
Orbit: 453 x 502 km, 97.2° (Epoch: 15 January)

Event Time Altitude Azimuth Distance (km) Brightness Sun altitude
Rises 04:58:19 0° 7° (N) 2,575 10.1 -11.0°
Reaches altitude 10° 05:00:24 10° 4° (N) 1,697 9.1 -10.5°
Maximum altitude 05:04:02 68° 281° (WNW) 541 6.5 -9.6°
Drops below altitude 10° 05:07:41 10° 198° (SSW) 1,704 9.4 -8.8°
Sets 05:09:46 0° 195° (SSW) 2,587 10.3 -8.3°
